[[{"header":{"parameterUnit":"m.s-1","parameterCategory":1,"la1":30.2991,"la2":30.254,"lo1":-89.0895,"lo2":-89.0444,"dy":0.0017,"dx":0.0017,"nx":28,"ny":28,"refTime":"2026-03-03T03:00:00:Z","depth":0,"parameterNumber":2,"parameterNumberName":"U-component_of_WINDS"},"data":[0,0,0,0,0,0,0,0,0,0,0,0,0,0,0,0,0,0,0,0,0,0,0,0,0,0,0,0,0,0,0,0,0,0,0,0,0,0,0,0,0,0,0,0,0,0,0,0,0,0,0,0,0,0,0,0,0,0,-3.6921,-3.6922,0,-3.701,-3.7011,-3.7012,-3.7019,-3.7018,-3.7017,-3.7016,-3.7109,-3.7113,-3.7116,0,0,0,0,0,0,0,0,0,0,0,0,0,-3.676,-3.6763,-3.6921,-3.6922,-3.6923,-3.701,-3.7011,-3.7013,-3.7019,-3.7018,-3.7016,-3.7015,-3.7108,-3.7112,-3.7116,0,0,0,0,0,0,0,0,0,0,0,0,0,-3.6837,-3.6764,-3.6921,-3.6937,-3.6939,-3.701,-3.7011,-3.7013,-3.7019,-3.7018,-3.7016,-3.7015,-3.7107,-3.7112,-3.7117,-3.7179,0,0,-3.7133,-3.7135,0,0,0,0,0,0,0,0,-3.6833,-3.6843,-3.6933,-3.6936,-3.6938,-3.7002,-3.6989,-3.7069,-3.702,-3.6989,-3.7016,-3.7014,-3.7075,-3.7083,-3.7103,-3.7183,-3.7187,-3.7133,-3.7136,-3.7139,-3.714,0,0,0,0,0,0,0,-3.6828,-3.684,-3.6956,-3.6935,-3.6938,-3.6941,-3.695,-3.7004,-3.7039,-3.6991,-3.6992,-3.7002,-3.7076,-3.7098,-3.7105,-3.7188,-3.7133,-3.7138,-3.7141,-3.7143,-3.7326,-3.7328,0,0,0,0,0,0,-3.6819,-3.6835,-3.6953,-3.6959,-3.6881,-3.6945,-3.6955,-3.6983,-3.7039,-3.7046,-3.7004,-3.7002,-3.709,-3.7099,-3.7108,-3.7185,-3.7138,-3.7143,-3.7146,-3.7325,-3.7327,-3.7329,0,0,0,0,0,0,-3.6815,-3.6829,-3.695,-3.6897,-3.6913,-3.6949,-3.698,-3.6986,-3.7007,-3.7048,-3.7054,-3.7019,-3.7089,-3.7101,-3.7161,-3.7188,-3.7146,-3.715,-3.7323,-3.7325,-3.7328,-3.7338,0,0,0,0,0,0,-3.6811,-3.6828,-3.685,-3.6898,-3.6916,-3.7,-3.6982,-3.6988,-3.7016,-3.7015,-3.7064,-3.7071,-3.7089,-3.7154,-3.7167,-3.7195,-3.7154,-3.732,-3.7324,-3.7327,-3.7335,-3.7341,-3.7345,0,0,0,0,0,-3.6805,-3.685,-3.6851,-3.6866,-3.6944,-3.7002,-3.7012,-3.7031,-3.7018,-3.7041,-3.7068,-3.7069,-3.7184,-3.716,-3.7174,-3.7204,-3.7319,-3.7323,-3.7327,-3.7333,-3.734,-3.7345,0,0,0,0,0,0,-3.6804,-3.6856,-3.6859,-3.692,-3.6956,-3.7002,-3.7032,-3.7037,-3.7078,-3.7076,-3.7099,-3.711,-3.717,-3.7194,-3.7166,-3.7268,-3.725,-3.7257,-3.725,-3.7256,-3.7261,-3.7254,-3.7159,0,0,0,0,0,-3.6812,-3.6853,-3.6896,-3.6946,-3.6964,-3.6996,-3.7021,-3.7033,-3.7072,-3.7087,-3.7118,-3.7157,-3.7202,-3.7231,-3.7274,-3.734,-3.7351,-3.7368,-3.7373,-3.7377,-3.7382,-3.742,-3.7428,-3.7342,-3.7342,-3.7342,0,0,-3.6827,-3.686,-3.6884,-3.6947,-3.6977,-3.702,-3.7008,-3.7054,-3.7087,-3.7095,-3.7153,-3.7178,-3.7223,-3.7286,-3.7316,-3.7308,-3.7409,-3.7382,-3.7385,-3.7388,-3.7425,-3.7433,-3.7441,-3.7345,-3.7344,-3.7344,0,0,-3.6876,-3.6905,-3.695,-3.6981,-3.7026,-3.7047,-3.7058,-3.7104,-3.7121,-3.718,-3.7187,-3.7228,-3.7304,-3.7336,-3.7363,-3.7428,-3.7431,-3.7442,-3.7467,-3.7504,-3.751,-3.7517,-3.754,-3.7548,-3.7447,-3.7447,-3.7447,0,-3.6888,-3.6953,-3.6973,-3.7019,-3.7047,-3.7057,-3.7104,-3.7133,-3.719,-3.721,-3.7201,-3.7298,-3.7329,-3.7401,-3.7417,-3.7438,-3.7453,-3.7435,-3.7508,-3.7514,-3.752,-3.7543,-3.7552,-3.7448,-3.7448,-3.7448,-3.7448,0,-3.6967,-3.7012,-3.7043,-3.7098,-3.713,-3.7177,-3.7206,-3.7236,-3.7247,-3.7269,-3.7331,-3.7369,-3.7421,-3.7439,-3.745,-3.7514,-3.7507,-3.7503,-3.7484,-3.7529,-3.7551,-3.756,-3.745,-3.7449,-3.7449,-3.7449,0,0,-3.7015,-3.7083,-3.7094,-3.712,-3.7172,-3.7208,-3.7256,-3.7307,-3.7333,-3.7374,-3.7415,-3.7481,-3.7478,-3.7508,-3.7523,-3.7555,-3.7606,-3.7547,-3.7548,-3.7556,-3.768,-3.7682,-3.7692,-3.7609,-3.7611,-3.7612,-3.7676,0,-3.707,-3.7154,-3.7175,-3.7248,-3.7291,-3.7303,-3.7345,-3.7383,-3.7406,-3.7447,-3.7474,-3.752,-3.7512,-3.753,-3.7563,-3.7592,-3.7631,-3.7588,-3.7649,-3.765,-3.7635,-3.7703,-3.7705,-3.7764,-3.7685,-3.7686,-3.7687,0,-3.7143,-3.7185,-3.7262,-3.7311,-3.733,-3.7367,-3.7417,-3.7455,-3.7499,-3.7514,-3.7549,-3.7562,-3.7615,-3.7595,-3.7669,-3.764,-3.7667,-3.7685,-3.7688,-3.7693,-3.767,-3.771,-3.7783,-3.7791,-3.7701,-3.77,-3.7699,0,-3.7171,-3.7247,-3.7303,-3.7325,-3.7383,-3.741,-3.7435,-3.7478,-3.7508,-3.7552,-3.7572,-3.7622,-3.7649,-3.7689,-3.7715,-3.7698,-3.7787,-3.777,-3.7802,-3.7801,-3.7818,-3.7816,-3.7896,-3.7837,-3.7837,-3.7837,-3.7837,0,-3.7229,-3.7275,-3.7316,-3.7351,-3.7404,-3.743,-3.7482,-3.7509,-3.7547,-3.7588,-3.7603,-3.7641,-3.7674,-3.7718,-3.7739,-3.7798,-3.781,-3.7824,-3.7829,-3.7822,-3.782,-3.7839,-3.7835,-3.7839,-3.7839,-3.7838,-3.7838,0,-3.7267,-3.7296,-3.7358,-3.7409,-3.7423,-3.746,-3.7505,-3.754,-3.7565,-3.7617,-3.7631,-3.767,-3.7723,-3.7753,-3.782,-3.7834,-3.7899,-3.7903,-3.7884,-3.7886,-3.7916,-3.7912,-3.8009,-3.8023,-3.7956,-3.7956,-3.7957,0,-3.7301,-3.7337,-3.7392,-3.7421,-3.7447,-3.7492,-3.7523,-3.7551,-3.7583,-3.7638,-3.7666,-3.772,-3.7763,-3.7847,-3.7883,-3.7935,-3.7939,-3.797,-3.7947,-3.7939,-3.7939,-3.7936,-3.7941,-3.7973,-3.7973,-3.7974,-3.7974,0,-3.7359,-3.7372,-3.7415,-3.7465,-3.7502,-3.7542,-3.7583,-3.7605,-3.7641,-3.7676,-3.773,-3.7764,-3.7833,-3.7886,-3.7941,-3.7969,-3.7978,-3.7982,-3.7992,-3.7984,-3.7971,-3.7979,-3.7893,-3.7979,-3.7978,-3.7978,-3.7978,-3.7977,-3.7396,-3.7429,-3.7473,-3.7522,-3.7556,-3.7594,-3.763,-3.766,-3.7705,-3.7762,-3.7777,-3.7833,-3.788,-3.7954,-3.7985,-3.803,-3.8025,-3.804,-3.8043,-3.8046,-3.8047,-3.7965,-3.8041,-3.8041,-3.8041,-3.8041,-3.8041,0,-3.7454,-3.7484,-3.7528,-3.7585,-3.7624,-3.7629,-3.7675,-3.7707,-3.7757,-3.7799,-3.7842,-3.7905,-3.7958,-3.7999,-3.8053,-3.8082,-3.8088,-3.8096,-3.8093,-3.81,-3.8048,-3.8034,-3.809,-3.809,-3.809,-3.809,-3.809,-3.809,-3.7488,-3.7545,-3.7564,-3.7639,-3.7669,-3.7724,-3.775,-3.7786,-3.782,-3.7889,-3.7933,-3.7959,-3.8002,-3.806,-3.8109,-3.812,-3.8139,-3.8146,-3.8158,-3.8109,-3.8103,-3.8098,-3.8084,-3.815,-3.8151,-3.8205,-3.8206,-3.8206]},{"header":{"parameterUnit":"m.s-1","parameterCategory":1,"la1":30.2991,"la2":30.254,"lo1":-89.0895,"lo2":-89.0444,"dy":0.0017,"dx":0.0017,"nx":28,"ny":28,"refTime":"2026-03-03T03:00:00:Z","depth":0,"parameterNumber":3,"parameterNumberName":"V-component_of_WINDS"},"data":[0,0,0,0,0,0,0,0,0,0,0,0,0,0,0,0,0,0,0,0,0,0,0,0,0,0,0,0,0,0,0,0,0,0,0,0,0,0,0,0,0,0,0,0,0,0,0,0,0,0,0,0,0,0,0,0,0,0,1.0313,1.0313,0,1.0376,1.0377,1.0378,1.0462,1.0463,1.0465,1.0466,1.0527,1.0527,1.0528,0,0,0,0,0,0,0,0,0,0,0,0,0,1.026,1.0261,1.0313,1.0313,1.0314,1.0376,1.0377,1.0378,1.0462,1.0463,1.0465,1.0467,1.0527,1.0527,1.0528,0,0,0,0,0,0,0,0,0,0,0,0,0,1.0299,1.0261,1.0312,1.0363,1.0369,1.0376,1.0377,1.0378,1.0461,1.0463,1.0466,1.0467,1.0527,1.0527,1.0528,1.0489,0,0,1.0529,1.0529,0,0,0,0,0,0,0,0,1.0297,1.0301,1.0355,1.036,1.0366,1.0414,1.0381,1.0415,1.0461,1.0426,1.0466,1.0468,1.0487,1.0491,1.0498,1.0492,1.0494,1.0529,1.053,1.053,1.053,0,0,0,0,0,0,0,1.0294,1.0299,1.0338,1.0356,1.0362,1.0382,1.039,1.0388,1.0444,1.0429,1.0435,1.0442,1.0491,1.0498,1.05,1.0495,1.0529,1.053,1.053,1.053,1.0462,1.046,0,0,0,0,0,0,1.0284,1.0296,1.0336,1.034,1.0336,1.0382,1.039,1.0396,1.0444,1.0454,1.044,1.0446,1.0496,1.05,1.0503,1.0462,1.053,1.053,1.053,1.0464,1.0462,1.0459,0,0,0,0,0,0,1.0283,1.0287,1.0333,1.032,1.0327,1.038,1.0386,1.0396,1.0404,1.0453,1.0463,1.0438,1.0498,1.0502,1.0493,1.0466,1.053,1.0531,1.0467,1.0463,1.0461,1.0379,0,0,0,0,0,0,1.0281,1.0286,1.0272,1.0319,1.0327,1.0322,1.0384,1.0396,1.0405,1.0412,1.0453,1.0461,1.05,1.0491,1.0493,1.0467,1.0531,1.0469,1.0465,1.0462,1.0385,1.0374,1.0365,0,0,0,0,0,1.0279,1.0245,1.0271,1.0275,1.0312,1.0321,1.0326,1.0371,1.0402,1.0389,1.0421,1.046,1.0468,1.049,1.0492,1.0466,1.0471,1.0466,1.0462,1.0389,1.0376,1.0365,0,0,0,0,0,0,1.0192,1.0252,1.0282,1.0263,1.0286,1.0335,1.0319,1.0356,1.037,1.0376,1.0431,1.044,1.0423,1.0444,1.0467,1.0432,1.0476,1.0471,1.042,1.0408,1.0398,1.0393,1.0532,0,0,0,0,0,1.0172,1.0175,1.0227,1.0205,1.0215,1.0265,1.0271,1.0304,1.033,1.034,1.0371,1.0394,1.0402,1.0406,1.0415,1.0388,1.0399,1.0372,1.0361,1.0353,1.0349,1.0337,1.0326,1.0444,1.0444,1.0444,0,0,1.0128,1.0161,1.0159,1.0188,1.0211,1.0213,1.0273,1.0271,1.0273,1.0339,1.0333,1.0357,1.0386,1.0368,1.0361,1.0384,1.0319,1.0347,1.034,1.034,1.0331,1.032,1.031,1.0441,1.0441,1.0442,0,0,1.0049,1.0074,1.006,1.0082,1.0115,1.0149,1.0145,1.0189,1.0208,1.0203,1.0253,1.0255,1.0267,1.0287,1.0298,1.0228,1.0266,1.023,1.0177,1.0166,1.0156,1.0148,1.0125,1.0116,1.0225,1.0225,1.0225,0,0.999,0.9996,1.0047,1.0044,1.0056,1.0118,1.0104,1.0121,1.0156,1.0162,1.0188,1.0206,1.0229,1.0217,1.0201,1.0207,1.0205,1.0226,1.0154,1.0146,1.014,1.0118,1.0109,1.0221,1.0221,1.0221,1.0222,0,0.9922,0.9926,0.991,0.9944,0.9954,0.9944,0.9994,0.9998,1.0031,1.0061,1.0056,1.0087,1.0105,1.0104,1.0135,1.0097,1.0111,1.0144,1.0189,1.0123,1.0104,1.0095,1.0214,1.0216,1.0217,1.0218,0,0,0.9791,0.9855,0.9848,0.9866,0.9908,0.9911,0.9905,0.9925,0.9927,0.9948,0.9945,0.9955,0.9987,1.0,1.0033,1.0023,0.9968,1.0058,1.006,1.0041,0.9929,0.9904,0.9894,0.9993,0.9991,0.999,0.9927,0,0.9721,0.9716,0.9763,0.9745,0.9749,0.9809,0.9804,0.9829,0.9857,0.9864,0.9895,0.9902,0.9943,0.9952,0.9944,0.9976,0.9946,0.9981,0.999,0.999,0.9982,0.9883,0.9857,0.9796,0.992,0.9918,0.9917,0,0.9639,0.9659,0.9642,0.9687,0.9691,0.9685,0.9708,0.9714,0.9744,0.9765,0.978,0.982,0.9817,0.9859,0.9856,0.9879,0.9885,0.9902,0.99,0.9904,0.995,0.9885,0.9777,0.9768,0.9906,0.9906,0.9907,0,0.9546,0.9568,0.9562,0.9574,0.9626,0.9621,0.9643,0.9675,0.9684,0.9703,0.971,0.9727,0.9737,0.975,0.9793,0.982,0.9785,0.9831,0.9803,0.9802,0.9793,0.9793,0.9686,0.9795,0.9796,0.9796,0.9796,0,0.9464,0.9452,0.9521,0.9517,0.9505,0.9559,0.9545,0.9572,0.96,0.9602,0.9653,0.9654,0.9711,0.9717,0.9751,0.9744,0.9747,0.9764,0.9774,0.9761,0.9758,0.9766,0.9772,0.9793,0.9794,0.9794,0.9795,0,0.9359,0.9405,0.9402,0.9452,0.9465,0.9454,0.9497,0.9494,0.9527,0.9529,0.9532,0.9582,0.9593,0.9638,0.9658,0.9681,0.9663,0.968,0.9653,0.9659,0.963,0.9632,0.9524,0.9513,0.9628,0.9627,0.9626,0,0.9304,0.9296,0.9347,0.9353,0.9372,0.938,0.9391,0.9443,0.9452,0.9487,0.948,0.9496,0.9511,0.9525,0.9562,0.9579,0.9598,0.9559,0.96,0.9588,0.9598,0.9599,0.9599,0.955,0.9548,0.9547,0.9546,0,0.9202,0.9226,0.924,0.9262,0.9274,0.9293,0.9316,0.9317,0.9376,0.9383,0.9395,0.9407,0.943,0.9444,0.9467,0.9488,0.9526,0.9533,0.9527,0.9514,0.9499,0.9508,0.963,0.9535,0.9536,0.9537,0.9537,0.9538,0.9121,0.9118,0.9154,0.9168,0.9191,0.9211,0.9213,0.9246,0.9258,0.9282,0.9312,0.9321,0.9352,0.9387,0.9405,0.9412,0.9434,0.9426,0.9424,0.9421,0.9415,0.9498,0.9416,0.9417,0.9417,0.9417,0.9418,0,0.9024,0.905,0.9063,0.9094,0.9105,0.9142,0.9169,0.9176,0.9184,0.921,0.9225,0.924,0.9255,0.9294,0.9313,0.9311,0.9329,0.9314,0.9315,0.932,0.9394,0.9398,0.9299,0.9299,0.9299,0.9299,0.9299,0.9299,0.8974,0.8971,0.8999,0.9008,0.9034,0.9045,0.9058,0.9077,0.9098,0.9113,0.9127,0.9153,0.9185,0.9207,0.9222,0.9233,0.9238,0.9217,0.9234,0.9303,0.9314,0.9325,0.9329,0.9217,0.9217,0.9159,0.9158,0.9158]}]]